Voltar ao catálogo

STARLINK-3071

AtivoComunicaçõesVLEO
NORAD 49147·PAYLOAD·🇺🇸 United States

Lançado Sep 14, 2021 de Vandenberg Space Force Base

Loading…

Próximas Passagens (próximas 24 horas)

TLE

AtualizadoSource: CelesTrak SupGP

Época: Sep 14, 2026, 21:17 UTC

1 49147C 21082T   26257.88729167 -.00025385  00000+0 -21277-2 0  2570
2 49147  70.0003 137.4237 0002710 270.8083 230.0700 14.98338247    14

Acompanhe STARLINK-3071 em tempo real com AllMySat

Download on the App Store